Current Version              Previous Version:    01  02  03  04  05  06  07  08  09  10  11  12  13  14  15  16  17  18  19  20  21  22  23  24  25  26  27  28  29  30  
   31  32  33  34  35  36  37  38  39  40  41  42  43  44  45  46  47  48  49  50  51  52  53  54  55  56  57  58  59  60  

[Printable]
809
ASUS44 KEWX 021610
RWRTX
SOUTH TEXAS REGIONAL WEATHER ROUNDUP
NATIONAL WEATHER SERVICE AUSTIN/SAN ANTONIO TX
1100 AM CDT TUE SEP 02 2014

NOTE: "FAIR" INDICATED FEW OR NO CLOUDS BELOW 12,000 FEET WITH NO
SIGNIFICANT WEATHER AND/OR OBSTRUCTIONS TO VISIBILITY.

* - THESE STATIONS ARE NOT NWS OR FAA STATIONS...AND ARE NOT SUBJECT
    TO NWS AND FAA QUALITY CONTROL.

TXZ171-172-183>190-021700-
TEXAS HILL COUNTRY AND EDWARDS PLATEAU

CITY           SKY/WX    TMP DP  RH WIND       PRES   REMARKS
JUNCTION       MOSUNNY   82  67  60 S9        29.99S
*LLANO         PTSUNNY   88  70  55 S12       30.00S HX  92
BURNET         PTSUNNY   86  70  58 S6G16     30.01S HX  90
*HORSESHOE BAY MOSUNNY   86  69  55 S5G16     29.98S HX  90
*KERRVILLE     PTSUNNY   82  72  71 S9        30.01R
*FREDERICKSBRG CLOUDY    84  67  56 S14G23    30.00S
*ROCKSPRINGS   CLOUDY    79  68  69 S14G20    30.04S
*BOERNE STAGE  MOSUNNY   86  66  51 S13G20    30.00F
*CASTROVILLE   MOSUNNY   88  69  53 SE13      29.98S HX  93
HONDO          MOSUNNY   87  72  60 S8        29.98F HX  93
*UVALDE        MOSUNNY   87  74  66 SE9       29.96F HX  95
DEL RIO        PTSUNNY   84  71  65 SE13      29.93S
LAUGHLIN AFB   PTSUNNY   84  71  66 S13       29.95S
CARRIZO SPRGS  PTSUNNY   88  72  58 SE10      29.92S HX  94
$$

TXZ173-191>194-202-209-217>225-228-021700-
CENTRAL AND SOUTH CENTRAL TEXAS

CITY           SKY/WX    TMP DP  RH WIND       PRES   REMARKS
GEORGETOWN     PTSUNNY   88  72  58 S16       29.99R HX  94
AUSTIN/BERGSTM PTSUNNY   88  72  58 S14       29.97S HX  94
AUSTIN/MABRY   MOSUNNY   90  73  57 SE9       29.98R HX  98
*AUSTIN/EXEC   SUNNY     86  72  62 S12       29.98S HX  92
*LAGO VISTA    PTSUNNY   88  70  54 S10G17    30.00S HX  93
SAN MARCOS     PTSUNNY   88  72  58 S13       29.98S HX  94
NEW BRAUNFELS  MOSUNNY   89  72  56 S10G20    29.95F HX  96
RANDOLPH AFB   PTSUNNY   85  73  65 S12       29.97S HX  92
PT SAN ANTONIO PTSUNNY   90  72  55 SE14      29.95S HX  96
SAN ANTONIO    MOSUNNY   87  73  62 S10G17    29.97S HX  94
STINSON FIELD  MOSUNNY   86  72  62 S10       29.95R HX  92
*PLEASANTON    SUNNY     90  71  53 SE9       29.95S HX  95
*LA GRANGE     MOSUNNY   91  76  61 SE12G18   29.95S HX 103
*GIDDINGS      PTSUNNY   84  73  69 S7G17     30.02R HX  91
*GONZALES      MOSUNNY   90  73  58 SE17      29.96S HX  98
$$

TXZ163>164-176>182-195>201-210>213-226-227-235-021700-
SOUTHEAST TEXAS

CITY           SKY/WX    TMP DP  RH WIND       PRES   REMARKS
COLLEGE STN    MOSUNNY   86  73  65 S10       29.99R HX  93
*BRYAN         MOSUNNY   89  74  60 S12G20    29.99S HX  97
*CALDWELL      MOSUNNY   86  73  66 SE14      30.01S HX  93
*CROCKETT      MOSUNNY   90  77  66 S14       30.03S HX 102
*BRENHAM       SUNNY     88  74  63 S10G16    29.99S HX  97
HUNTSVILLE     MOSUNNY   89  73  59 VRB7      30.00S HX  97
CONROE         MOSUNNY   90  74  59 S16       30.01R HX  99
HOUSTON BUSH   MOSUNNY   90  75  62 S12G20    29.99S HX 100
HOUSTON HOBBY  MOSUNNY   90  75  61 S17       29.98S HX 100
*HOUSTON SW AP MOSUNNY   89  73  58 SE16      29.99S HX  96
PEARLAND       MOSUNNY   89  74  60 SE16G23   30.00S HX  98
HOUSTON HOOKS  MOSUNNY   89  74  60 S13G18    29.99R HX  98
ELLINGTON FLD  PTSUNNY   90  75  62 S13       30.00R HX 100
SUGAR LAND     MOSUNNY   90  75  61 S16G24    29.98S HX 100
*HOUSTON EXEC  PTSUNNY   90  90 100 S14G22    29.99S HX 129
*CLEVELAND MUN MOSUNNY   82  76  83 SW3       30.02R THUNDER HAZE
*WHARTON       SUNNY     89  73  59 S16       29.99R HX  98
$$

TXZ214>216-236>238-021700-
THE UPPER TEXAS COAST

CITY           SKY/WX    TMP DP  RH WIND       PRES   REMARKS
*ORANGE        MOSUNNY   88  75  65 SE12G20   30.03R HX  97
PORT ARTHUR    PTSUNNY   89  76  65 S15       30.00S HX 100
GALVESTON      MOSUNNY   89  78  70 S17       30.00S HX 103
ANGLETON       MOSUNNY   88  74  63 S16       29.99R HX  96
*BAY CITY      PTSUNNY   88  77  68 S13       29.98S HX 100
PALACIOS       PTSUNNY   90  74  59 SE20G26   29.97R HX  99
$$

TXZ229>234-239>247-021700-
TEXAS COASTAL BEND AND RIO GRANDE PLAINS

CITY           SKY/WX    TMP DP  RH WIND       PRES   REMARKS
VICTORIA       PTSUNNY   92  76  59 SE16      29.96R HX 104
*BEEVILLE      PTSUNNY   88  74  64 SE12      29.94S HX  96
ROCKPORT       MOSUNNY   89  76  65 SE17      29.94R HX 100
*PORT ARANSAS  SUNNY     88  76  69 SE14G20   29.94S HX  99
*PORT LAVACA   MOSUNNY   87  76  70 SE14      29.96R HX  97
*INGLESIDE     MOSUNNY   91  76  60 SE18G26   29.94R HX 102
CORPUS CHRISTI PTSUNNY   85  78  80 SE10      29.94R HX  96
CORPUS NAS     MOSUNNY   90  78  68 SE18      29.94R HX 104
*ROBSTOWN      PTSUNNY   90  74  59 SE14      29.93S HX  99
ALICE          MOSUNNY   92  73  53 SE15G22   29.92S HX 100
KINGSVILLE NAS PTSUNNY   90  77  65 SE16      29.93R HX 103
COTULLA        MOSUNNY   88  71  57 SE14G23   29.94S HX  94
*FAITH RANCH   MOSUNNY   86  72  62 SE12G18   29.93S HX  92
LAREDO         MOSUNNY   90  72  55 SE13      29.95R HX  97
$$

TXZ248>255-021700-
DEEP SOUTH TEXAS

CITY           SKY/WX    TMP DP  RH WIND       PRES   REMARKS
BROWNSVILLE    MOSUNNY   88  76  67 E12G18    29.89F HX  99
PORT ISABEL    MOSUNNY   88  76  67 E17       29.90S HX  99
*SOUTH PADRE   SUNNY     90  77  66 SE15      29.90S HX 102
HARLINGEN      MOSUNNY   88  75  65 E21       29.89S HX  97
*HEBBRONVILLE  PTSUNNY   86  72  63 E12G18    29.95R HX  92
MCALLEN        PTSUNNY   87  76  69 E5        29.90F HX  97
*WESLACO       NOT AVBL
FALFURRIAS     MOSUNNY   85  70  59 SE10G17   29.92S HX  90
EDINBURG       PTSUNNY   90  74  59 SE7       29.90S HX  98
*ZAPATA        PTSUNNY   89  71  55 SE9G16    29.92R HX  94
$$

TXZ213>215-236>238-242>244-246-247-251-254-255-021700-
CMAN STATIONS

STATION/POSITION TIME  TEMP    WIND        PRES    WAVE
                       AIR SEA DIR/SP/G            HT/PER
                 (UTC) (F)     (DEG/KT/KT) (MB)    (FT/S)
SABINE PASS      1600   86 84  170/ 15/ 18 1016.4
SEA RIM ST PARK  1600   86     170/ 13/ 16 1016.7
NORTH JETTY/GLS  1600   85 84  190/ 17/ 19   N/A
EAGLE POINT      1600   85 84  180/ 18/ 22 1015.7
MORGANS POINT    1600   87     160/  9/ 13 1015.6
MISSION/ARANSAS  1500   83     130/ 13     1015.0
PORT O`CONNOR    1600          130/ 18/ 21   N/A
PORT ARANSAS     1600   85 85  120/ 15/ 17 1014.4
MALAQUITE BEACH  1600   85 85  110/ 14/ 16 1013.1
BAFFIN BAY       1600   86 83  130/ 10/ 14 1013.5
PORT ISABEL      1600   85 83  130/  4/ 15 1012.7
$$

GMZ080-GMZ150>470-021700-
OFFSHORE BUOY REPORTS

STATION/POSITION TIME  TEMP    WIND        PRES    WAVE
                       AIR SEA DIR/SP/G            HT/PER
                 (UTC) (F)     (DEG/KT/KT) (MB)    (FT/S)
20 E GALVESTON   1600   85 85  150/ 14/ 16 1015.7    4/ 5
90 E PT ARANSAS  1600   85 85  130/ 16/ 19 1015.0    6/ 6
35 NE PT MANSFLD 1600   84 85  120/ 19/ 23 1012.6    6/ 7
200 E PT ISABEL  1600   84 85  120/ 17/ 19 1014.1    8/10
$$